This is the latest recevied weather packets stored in our database for station/object WC4PEM-9. If no packets are shown the sender has not sent any weather packets the latest 1 day(s).
| Time | Temp. | Humidity | Pressure | Rain* | Wind** | Luminosity | Snow |
|---|---|---|---|---|---|---|---|
| 1777971809 | 15.56° C | 94% | 1014.4 hPa | 0 mm | 0.45 m/s, 309° | - | - |
| 1777971696 | 15.56° C | 94% | 1013.9 hPa | 0 mm | 0.45 m/s, 9° | - | - |
| 1777971509 | 15.56° C | 94% | 1013.9 hPa | 0 mm | 0.45 m/s, 9° | - | - |
| 1777971209 | 15.56° C | 93% | 1013.8 hPa | 0 mm | 0.45 m/s, 309° | - | - |
| 1777970920 | 15.56° C | 93% | 1014 hPa | 0 mm | 0.45 m/s, 51° | - | - |
| 1777970909 | 15.56° C | 93% | 1013.9 hPa | 0 mm | 0.45 m/s, 325° | - | - |
| 1777970880 | 15.56° C | 93% | 1014 hPa | 0 mm | 0.45 m/s, 51° | - | - |
| 1777970609 | 15.56° C | 93% | 1014 hPa | 0 mm | 0.45 m/s, 51° | - | - |
| 1777970529 | 15.56° C | 93% | 1013.8 hPa | 0 mm | 0.45 m/s, 120° | - | - |
| 1777970309 | 15.56° C | 93% | 1013.8 hPa | 0 mm | 0.45 m/s, 120° | - | - |
| 1777970292 | 15.56° C | 93% | 1014.2 hPa | 0 mm | 0.45 m/s, 265° | - | - |
| 1777970009 | 15.56° C | 93% | 1014.2 hPa | 0 mm | 0.45 m/s, 265° | - | - |
| 1777969896 | 15.56° C | 93% | 1014 hPa | 0 mm | 0.45 m/s, 51° | - | - |
| 1777969709 | 15.56° C | 93% | 1014 hPa | 0 mm | 0.45 m/s, 51° | - | - |
| 1777969409 | 15.56° C | 93% | 1014.1 hPa | 0 mm | 0.45 m/s, 265° | - | - |
| 1777969253 | 15.56° C | 93% | 1013.9 hPa | 0 mm | 0 m/s | - | - |
| 1777969109 | 15.56° C | 93% | 1013.8 hPa | 0 mm | 0.45 m/s, 51° | - | - |
| 1777968809 | 15.56° C | 93% | 1013.9 hPa | 0 mm | 0 m/s | - | - |
| 1777968697 | 15.56° C | 93% | 1013.9 hPa | 0 mm | 0 m/s | - | - |
| 1777968509 | 15.56° C | 93% | 1013.9 hPa | 0 mm | 0 m/s | - | - |
| 1777968394 | 16.11° C | 93% | 1014 hPa | 0 mm | 0.45 m/s, 51° | - | - |
| 1777968209 | 16.11° C | 93% | 1014 hPa | 0 mm | 0.45 m/s, 51° | - | - |
| 1777968193 | 16.11° C | 93% | 1014 hPa | 0 mm | 0.45 m/s, 309° | - | - |
| 1777967909 | 16.11° C | 93% | 1014 hPa | 0 mm | 0.45 m/s, 309° | - | - |
| 1777967609 | 16.11° C | 93% | 1014 hPa | 0 mm | 0.45 m/s, 265° | - | - |
* Rain latest hour (hover to see other rain measurements)
** Current wind speed in m/s (hover to see current wind gust speed)